Date String (YYYY-MM-DD hh:mm:ss) UTC,Instrument flags,Ambient pressure (hPa),Sample flow (lpm),Bypass flow (lpm),Sample temperature (°C),Ambient temperature (°C),ASC tube jacket temperature (°C),LED temperature (°C),Box temperature (°C),Sample RH (%),Span deviation,Mass concentration (μg/m³),Mass concentration (μg/m³),Mass concentration (μg/m³)
DateTimeUTC,F1_M11,P_M11,Q1_M11,Q2_M11,T1_M11,T2_M11,T3_M11,T4_M11,T5_M11,U1_M11,ZSPAN_M11,X0_M11,X2_M11,X1_M11
2022-06-11 22:00:00,,0821.3,5.01,0.00,28.7,27.1,00.0,37.4,30.6,16.0,0000.0,0010.48,0004.30,0003.12
2022-06-11 22:01:00,,0821.3,4.99,0.00,28.7,27.2,00.0,37.5,30.6,16.4,0000.0,0009.98,0004.28,0003.11
2022-06-11 22:02:00,,0821.3,5.01,0.00,28.7,27.4,00.0,37.5,30.7,16.9,0000.0,0010.25,0004.28,0003.11
2022-06-11 22:03:00,,0821.3,5.00,0.00,28.8,27.6,00.0,37.5,30.8,16.0,0000.0,0010.17,0004.29,0003.11
2022-06-11 22:04:00,,0821.3,4.99,0.00,28.8,27.8,00.0,37.5,30.9,15.6,0000.0,0010.77,0004.32,0003.11
2022-06-11 22:05:00,,0821.3,4.99,0.00,28.9,27.8,00.0,37.5,30.8,15.4,0000.0,0010.69,0004.30,0003.09
2022-06-11 22:06:00,,0821.3,5.01,0.00,28.8,27.2,00.0,37.5,30.7,15.4,0000.0,0010.71,0004.29,0003.09
2022-06-11 22:07:00,,0821.4,5.01,0.00,28.8,27.0,00.0,37.4,30.6,16.7,0000.0,0011.95,0004.32,0003.09
2022-06-11 22:08:00,,0821.4,5.00,0.00,28.7,27.0,00.0,37.5,30.6,15.6,0000.0,0012.03,0004.38,0003.11
2022-06-11 22:09:00,,0821.2,5.00,0.00,28.7,27.2,00.0,37.5,30.6,15.8,0000.0,0012.09,0004.42,0003.12
2022-06-11 22:10:00,,0821.2,5.00,0.00,28.7,27.4,00.0,37.5,30.7,16.1,0000.0,0012.12,0004.43,0003.12
2022-06-11 22:11:00,,0821.1,5.01,0.00,28.8,27.5,00.0,37.5,30.8,15.0,0000.0,0012.56,0004.43,0003.13
2022-06-11 22:12:00,,0821.2,5.00,0.00,28.8,27.7,00.0,37.6,30.8,14.8,0000.0,0012.65,0004.49,0003.14
2022-06-11 22:13:00,,0821.1,4.99,0.00,28.9,27.6,00.0,37.5,30.8,15.0,0000.0,0012.26,0004.51,0003.14
2022-06-11 22:14:00,,0821.1,5.01,0.00,28.8,27.1,00.0,37.5,30.7,15.1,0000.0,0012.42,0004.52,0003.14
2022-06-11 22:15:00,,0821.2,5.00,0.00,28.8,26.9,00.0,37.5,30.6,14.7,0000.0,0011.73,0004.50,0003.14
2022-06-11 22:16:00,,0821.2,5.00,0.00,28.8,27.0,00.0,37.5,30.6,14.6,0000.0,0011.86,0004.55,0003.15
2022-06-11 22:17:00,,0821.2,5.00,0.00,28.7,27.1,00.0,37.5,30.6,15.5,0000.0,0012.13,0004.60,0003.16
2022-06-11 22:18:00,,0821.2,5.00,0.00,28.8,27.3,00.0,37.5,30.7,14.1,0000.0,0011.02,0004.58,0003.17
2022-06-11 22:19:00,,0821.2,5.01,0.00,28.8,27.5,00.0,37.5,30.8,15.1,0000.0,0010.82,0004.58,0003.16
2022-06-11 22:20:00,,0821.2,4.99,0.00,28.8,27.7,00.0,37.6,30.8,14.2,0000.0,0010.85,0004.56,0003.15
2022-06-11 22:21:00,,0821.1,4.99,0.00,28.9,27.7,00.0,37.5,30.8,15.1,0000.0,0010.92,0004.56,0003.16
2022-06-11 22:22:00,,0821.1,5.00,0.00,28.8,27.1,00.0,37.5,30.7,15.9,0000.0,0010.61,0004.52,0003.16
2022-06-11 22:23:00,,0821.1,4.99,0.00,28.8,26.9,00.0,37.5,30.6,16.0,0000.0,0010.03,0004.46,0003.15
2022-06-11 22:24:00,,0821.1,5.01,0.00,28.8,27.0,00.0,37.5,30.6,16.0,0000.0,0009.66,0004.38,0003.15
2022-06-11 22:25:00,,0821.1,5.00,0.00,28.7,27.1,00.0,37.5,30.6,16.4,0000.0,0009.53,0004.35,0003.14
2022-06-11 22:26:00,,0821.1,5.00,0.00,28.7,27.3,00.0,37.5,30.7,15.3,0000.0,0009.99,0004.38,0003.15
2022-06-11 22:27:00,,0821.2,4.99,0.00,28.8,27.5,00.0,37.5,30.7,14.6,0000.0,0010.48,0004.39,0003.17
2022-06-11 22:28:00,,0821.1,5.00,0.00,28.8,27.7,00.0,37.5,30.8,14.9,0000.0,0010.51,0004.37,0003.17
2022-06-11 22:29:00,,0821.1,5.00,0.00,28.9,27.6,00.0,37.5,30.8,15.4,0000.0,0011.03,0004.36,0003.16
2022-06-11 22:30:00,,0821.0,4.99,0.00,28.8,27.1,00.0,37.5,30.7,15.5,0000.0,0010.97,0004.33,0003.16
2022-06-11 22:31:00,,0821.1,4.99,0.00,28.8,26.9,00.0,37.4,30.6,14.5,0000.0,0010.79,0004.31,0003.15
2022-06-11 22:32:00,,0821.1,5.00,0.00,28.7,27.0,00.0,37.5,30.6,15.0,0000.0,0010.94,0004.32,0003.14
2022-06-11 22:33:00,,0821.1,4.99,0.00,28.7,27.1,00.0,37.5,30.6,15.5,0000.0,0011.00,0004.37,0003.15
2022-06-11 22:34:00,,0821.1,5.00,0.00,28.7,27.3,00.0,37.5,30.7,16.0,0000.0,0011.54,0004.46,0003.15
2022-06-11 22:35:00,,0821.1,4.98,0.00,28.8,27.5,00.0,37.5,30.7,16.2,0000.0,0012.26,0004.54,0003.16
2022-06-11 22:36:00,,0821.1,5.00,0.00,28.8,27.7,00.0,37.5,30.8,15.7,0000.0,0012.55,0004.57,0003.16
2022-06-11 22:37:00,,0821.1,5.00,0.00,28.9,27.7,00.0,37.5,30.8,15.9,0000.0,0012.83,0004.51,0003.15
2022-06-11 22:38:00,,0821.1,5.00,0.00,28.8,27.1,00.0,37.5,30.6,16.6,0000.0,0012.06,0004.45,0003.14
2022-06-11 22:39:00,,0821.1,5.01,0.00,28.7,26.9,00.0,37.4,30.6,15.4,0000.0,0011.74,0004.39,0003.14
2022-06-11 22:40:00,,0821.1,4.99,0.00,28.7,26.9,00.0,37.5,30.6,15.5,0000.0,0011.00,0004.39,0003.14
2022-06-11 22:41:00,,0821.1,4.99,0.00,28.7,27.1,00.0,37.5,30.6,15.7,0000.0,0011.10,0004.43,0003.15
2022-06-11 22:42:00,,0821.2,4.99,0.00,28.7,27.3,00.0,37.5,30.6,15.9,0000.0,0011.24,0004.47,0003.16
2022-06-11 22:43:00,,0821.2,5.00,0.00,28.7,27.5,00.0,37.5,30.7,14.7,0000.0,0011.09,0004.45,0003.16
2022-06-11 22:44:00,,0821.1,5.00,0.00,28.8,27.7,00.0,37.5,30.8,15.7,0000.0,0012.26,0004.43,0003.16
2022-06-11 22:45:00,,0821.1,5.01,0.00,28.8,27.6,00.0,37.5,30.8,15.3,0000.0,0012.98,0004.37,0003.17
2022-06-11 22:46:00,,0821.0,5.00,0.00,28.8,27.1,00.0,37.5,30.6,15.4,0000.0,0012.54,0004.32,0003.17
2022-06-11 22:47:00,,0821.0,4.98,0.00,28.7,26.9,00.0,37.4,30.6,14.8,0000.0,0013.11,0004.31,0003.17
2022-06-11 22:48:00,,0821.0,5.00,0.00,28.7,26.9,00.0,37.5,30.6,14.4,0000.0,0012.84,0004.30,0003.17
2022-06-11 22:49:00,,0821.0,5.00,0.00,28.7,27.1,00.0,37.5,30.6,14.7,0000.0,0013.03,0004.36,0003.16
2022-06-11 22:50:00,,0821.0,4.99,0.00,28.7,27.3,00.0,37.5,30.6,14.7,0000.0,0013.13,0004.42,0003.17
2022-06-11 22:51:00,,0821.0,5.01,0.00,28.7,27.5,00.0,37.5,30.7,14.7,0000.0,0013.27,0004.43,0003.16
2022-06-11 22:52:00,,0821.0,5.01,0.00,28.8,27.7,00.0,37.5,30.8,16.1,0000.0,0013.86,0004.45,0003.16
2022-06-11 22:53:00,,0821.0,5.00,0.00,28.8,27.9,00.0,37.5,30.9,15.9,0000.0,0014.09,0004.41,0003.15
2022-06-11 22:54:00,,0821.0,5.01,0.00,28.8,27.5,00.0,37.5,30.8,15.4,0000.0,0014.77,0004.42,0003.15
2022-06-11 22:55:00,,0821.0,5.00,0.00,28.8,27.0,00.0,37.5,30.6,14.8,0000.0,0013.91,0004.41,0003.15
2022-06-11 22:56:00,,0821.0,4.99,0.00,28.8,26.9,00.0,37.5,30.6,15.1,0000.0,0012.43,0004.38,0003.13
2022-06-11 22:57:00,,0821.0,5.00,0.00,28.7,27.0,00.0,37.5,30.6,14.3,0000.0,0012.07,0004.36,0003.12
2022-06-11 22:58:00,,0820.9,4.99,0.00,28.7,27.2,00.0,37.5,30.6,14.9,0000.0,0011.78,0004.35,0003.12
2022-06-11 22:59:00,,0821.0,5.01,0.00,28.8,27.4,00.0,37.5,30.7,14.7,0000.0,0011.43,0004.34,0003.11
